{"data":{"norad_id":59393,"epoch":"2026-09-21T15:56:36.089376Z","epoch_age_seconds":64538,"freshness":"FRESH","line1":"1 59393U 24062V   26264.66430659 -.00000283  00000+0  27536-5 0  9993","line2":"2 59393  53.1590  48.3320 0001362  93.6675 266.4483 15.34392137139916","mean_motion":15.34392137,"eccentricity":0.0001362,"inclination_deg":53.159,"raan_deg":48.332,"arg_perigee_deg":93.6675,"mean_anomaly_deg":266.4483,"bstar":2.7536e-6,"rev_number":13991,"period_min":93.848239004629,"perigee_km":461.79488517617,"apogee_km":463.65833642375,"semimajor_km":6840.8636108,"source":"CELESTRAK","updated_at":"2026-09-22T09:00:48.911864Z"}}